Regional Weather Roundup
Issued by NWS Upton, NY

Current Version | Previous Version | Text Only | Print | Product List | Glossary On
Versions: 1 2 3 4 5 6 7 8 9 10 11 12 13 14 15 16 17 18 19 20 21 22 23 24 25 26 27 28 29 30 31 32 33 34 35 36 37 38 39 40 41 42 43 44 45 46 47 48 49 50
000
ASUS41 KOKX 240605
RWROKX

Regional Weather Roundup
National Weather Service New York NY
100 AM EST SAT FEB 24 2018

Note: "FAIR" indicates few or no clouds below 12,000 feet with no
significant weather and/or obstructions to visibility.

NYZ071-072-176-178-NJZ106-104-240700-
New York City Metro Area

CITY           SKY/WX    TMP DP  RH WIND       PRES   REMARKS
Central Park   NOT AVBL
Bronx Bot Gard   N/A     43  39  87 SW6       30.16F
Bronx Lehman C   N/A     43  39  87 W6          N/A
LaGuardia Arpt CLOUDY    45  40  82 W13G23    30.17R
Queens College   N/A     43  41  93 W7          N/A
Kennedy Intl   CLOUDY    42  42 100 W8        30.20R
Breezy Point     N/A     39 N/A N/A W8G14       N/A  WCI  34
Brooklyn Coll    N/A     43  41  93 W13         N/A
Staten Island    N/A     41  41 100 W8          N/A
Newark/Liberty CLOUDY    42  41  96 W10       30.18S FOG
Teterboro      CLOUDY    44  40  85 SW8       30.16F FOG
$$

NYZ177-179-078>081-240700-
Long Island New York

CITY           SKY/WX    TMP DP  RH WIND       PRES   REMARKS
Jones Beach      N/A     39 N/A N/A W12         N/A  WCI  32
Wantagh          N/A     41  39  93 SW6         N/A
Hempstead        N/A     43  41  93 SW5       30.20R
Matinecock Pt    N/A     41 N/A N/A SW12        N/A
Farmingdale    CLOUDY    41  40  96 W7        30.17S
MacArthur/ISP  CLOUDY    41  41 100 W9        30.16S
Stony Brook U    N/A     39  39 100 W2          N/A
Shirley        CLOUDY    42  42 100 W8        30.16F
Mt Sinai Harb    N/A    N/A N/A N/A W1          N/A
Westhampton    CLOUDY    41  41 100 W7        30.17F FOG
East Hampton   CLOUDY    38  37  99 W7        30.15S FOG     WCI  32
Southold         N/A     37  37 100 W5          N/A  WCI  34
Montauk          N/A     39  38  96 W9        30.15F WCI  33
$$

NYZ052-065-067-240700-
Hudson Valley

CITY           SKY/WX    TMP DP  RH WIND       PRES   REMARKS
White Plains   MOCLDY    40  39  97 W8        30.13F FOG     WCI  34
Larchmont Harb   N/A     41 N/A N/A SW9         N/A
Croton On Huds   N/A     41 N/A N/A SE3         N/A
Somers           N/A     37  37 100 NW1         N/A
Brewster         N/A     36  36 100 W1          N/A
Newburgh       CLOUDY    39  39 100 W9        30.15F WCI  33
Montgomery     MOCLDY    38  37  97 SW7       30.13S WCI  33
Otisville        N/A     39  37  93 SW3         N/A
Warwick          N/A     39  37  93 W10         N/A  WCI  32
Suffern          N/A     39  39 100 SW2         N/A
Poughkeepsie   CLOUDY    37  36  96 S3        30.14F
Albany         DRIZZLE   37  33  85 S7        30.11R WCI  32
$$

NJZ001-105-106-008-010-013-015-019>022-104-240700-
New Jersey

CITY           SKY/WX    TMP DP  RH WIND       PRES   REMARKS
Newark/Liberty CLOUDY    42  41  96 W10       30.18S FOG
Teterboro      CLOUDY    44  40  85 SW8       30.16F FOG
Caldwell       CLOUDY    41  41 100 VRB5      30.17F
Somerville     CLOUDY    39  39 100 VRB3      30.19R FOG
Linden         CLOUDY    41  40  94 W10G16    30.20R FOG
Perth Amboy      N/A     41 N/A N/A W12         N/A
Sussex         CLOUDY    39  38  96 SW7       30.16F WCI  34
Andover          N/A     38  38 100 SW7       30.17F WCI  33
Trenton        CLOUDY    44  43  96 W8        30.20R
Millville      CLOUDY    45  44  97 SW10      30.23S
Atlantic City  CLOUDY    46  45  96 SW10      30.21F
Wrightstown    CLOUDY    44  44  98 W12       30.18
Toms River     CLOUDY    44  43  96 W10       30.20S
Belmar         CLOUDY    43  42  97 SW9       30.19F FOG
$$

PAZ047>061-062-071-240700-
Eastern Pennsylvania

CITY           SKY/WX    TMP DP  RH WIND       PRES   REMARKS
Philadelphia   CLOUDY    44  43  96 SW10      30.23S
Allentown      CLOUDY    42  39  89 W7        30.20S FOG
Scranton       CLOUDY    40  39  97 SW7       30.16F FOG
$$

CTZ002-004>006-009-010-012-RIZ004-006-007-MAZ004-011-015-240700-
Southern New England

 In CT

CITY           SKY/WX    TMP DP  RH WIND       PRES   REMARKS
Bradley Intl   CLOUDY    37  37 100 S8        30.10F WCI  31
Hartford       FAIR      39  37  92 S6        30.13F WCI  35
Danbury        CLOUDY    38  37  97 W5        30.14F FOG     WCI  34
Wtrbury/Oxford FOG       36  36 100 VRB7      30.12F VSB 1/4 WCI  30
Norwalk Harbor   N/A     37 N/A N/A S6          N/A  WCI  33
Bridgeport     FOG       38  37  97 SW7       30.15F VSB 3/4 WCI  33
Meriden        CLOUDY    39  37  92 VRB6      30.14F WCI  35
New Haven      CLOUDY    39  37  92 SW3       30.15S FOG
Chester        CLOUDY    39  39 100 SW10G21   30.12S FOG     WCI  32
Groton         CLOUDY    40  38  93 W9        30.13F WCI  34
Willimantic    CLOUDY    38  37  97 CALM      30.12F

 In RI

CITY           SKY/WX    TMP DP  RH WIND       PRES   REMARKS
Providence     CLOUDY    39  38  96 SW6       30.10F WCI  35
Block Island   CLOUDY    38  38 100 W13       30.14S FOG     WCI  30
Westerly       CLOUDY    40  40 100 VRB7      30.13F FOG

In MA

CITY           SKY/WX    TMP DP  RH WIND       PRES   REMARKS
Boston         CLOUDY    39  37  92 SW8       30.05F WCI  33
Worcester      CLOUDY    36  34  92 W24G32    30.01F WCI  24
Westfield      CLOUDY    37  36  96 SE6       30.09S WCI  32
Provincetown   MOCLDY    37  37 100 SW12      30.06F WCI  29
Nantucket      CLOUDY    43  43 100 W18G25    30.08F FOG
$$

ANZ330-335-338-340-345-350-353-355-240700-
Coastal Marine Observations


STATION/POSITION TIME  SKY/WX   TEMP    WIND        PRES    VSBY  WAVE
                                AIR SEA DIR/SP/G                  HT/PER
                 (UTC)          (F)     (DEG/KT/KT) (MB)    (MI)  (FT/S)
NY Harb Entrance 0550            40 39  230/  6/  8 1022.0          3/ 6
20 S Fire Island 0550            42 42  250/ 10/ 14 1021.8          3/ 7
23 SSW Montauk P 0550            41 42  260/ 12/ 16 1021.2          3/ 6
15 E Barnegat Li 0530               42                N/A           4/ 7
Hudson Canyon    0550            46 46  250/ 19/ 23 1022.1          4/ 7
Kings Point      0548            42 39  310/  9/ 12 1022.7
Execution Rocks  NOT AVBL
Western LI Sound NOT AVBL
Central LI Sound 0500            37     270/  8/ 12   N/A           1
Robbins Reef     0548            42     280/ 12/ 14 1022.8
$$


>>>>>>>>>>>>>>>>>>>>>>>>>>>> KEY <<<<<<<<<<<<<<<<<<<<<<<<<<<
>                                                          <
>     SKY/WX - Sky Condition/Present Weather               <
>     TMP    - Temperature in Fahrenheit                   <
>     DP     - Dew Point in Fahrenheit                     <
>     RH     - Relative Humidity in Percent                <
>     WIND   - Direction (from) and Speed in MPH           <
>     PRES   - Mean Sea Level Pressure (inches of Hg)      <
>     WCI    - Wind Chill Index                            <
>     VSB    - Visibility in Miles                         <
>     HX     - Heat Index                                  <
>     TC     - Temperature in Celsius                      <
>     VRB    - Varibale Wind Direction                     <
>                                                          <
>>>>>>>>>>>>>>>>>>>>>>>>>>>> KEY <<<<<<<<<<<<<<<<<<<<<<<<<<<



USA.gov is the U.S. government's official web portal to all federal, state and local government web resources and services.